Location: Newark
(53.7833°N, 9.4833°E)
Time: 04:32:54
(UTC+00:00)

Envisat - Pass Details

Date: 17 December 2019
Orbit: 764 x 766 km, 98.1° (Epoch: 22 January)

Event Time Altitude Azimuth Distance (km) Brightness Sun altitude
Rises 16:38:12 0° 152° (SSE) 3,225 6.2 -13.1°
Reaches altitude 10° 16:40:31 10° 150° (SSE) 2,303 5.4 -13.4°
Maximum altitude 16:45:32 64° 70° (ENE) 851 3.0 -14.1°
Drops below altitude 10° 16:50:35 10° 350° (N) 2,318 5.4 -14.8°
Sets 16:52:54 0° 347° (NNW) 3,249 6.2 -15.1°
